sat.trackr.live / text

‹ back to catalog

STARLINK-2686

NORAD 48464 · 2021-040AN

PAYLOAD ACTIVE UNKNOWN

§ Identity

Operator
Country
US
Launch date
2021-05-09
Launch site
AFETR
Launch vehicle
Mass (kg)
RCS (m²)

Purposes: comms

External: N2YO · Heavens-Above · Gunter

§ Orbital elements

Epoch: 2026-05-24T20:04:54.262560Z

Period
94.01 min
Inclination
53.1582°
Eccentricity
0.0001150
Mean motion
15.31717654 rev/d
Perigee alt
469.9 km
Apogee alt
471.5 km
Semi-major
6,848.8 km
B*
1.7492e-4
RAAN
197.0242°
Arg perigee
88.3735°
Mean anomaly
271.7399°
Rev number
27,816

§ Raw data

STARLINK-26861 48464U 21040AN  26144.83673915  .00005070  00000+0  17492-3 0  99992 48464  53.1582 197.0242 0001150  88.3735 271.7399 15.31717654278160

JSON: /api/v1/satellites/48464 · /tle

For live sub-satellite position, see the globe view (requires WebGL).

§ Visibility from observer

Set your observer location to see the next 7 days of passes ≥ 10°. The values pass through the URL so the page stays shareable.

No JS? Fill the form by hand. The geolocation button needs JavaScript.